Track TATIANA 2 now! 10-day predictions TATIANA 2 is classified as:
1 35868U 09049D 23156.87095428 .00000198 00000-0 10639-3 0 9992 2 35868 98.5612 122.4701 0002923 242.8465 117.2416 14.23215528712204